Regional Weather Roundup
Issued by NWS Grand Forks, ND

Home | Current Version | Previous Version | Text Only | Print | Product List | Glossary On
Versions: 1 2 3 4 5 6 7 8 9 10 11 12 13 14 15 16 17 18 19 20 21 22 23 24 25 26 27 28 29 30 31 32 33 34 35 36 37 38 39 40 41 42 43 44 45 46 47 48 49 50
000
ASUS43 KFGF 030031
RWRFGF
PRAIRIE TO PINES  WEATHER ROUNDUP
NATIONAL WEATHER SERVICE EASTERN NORTH DAKOTA/GRAND FORKS ND
700 PM CDT SUN AUG 02 2015

 **SATELLITE DATA USED TO AUGMENT SKY COVER AT AUTOMATED STATIONS**
 *****  WEATHER ACROSS EASTERN NORTH DAKOTA  *****

CITY           SKY/WX    TMP DP  RH WIND       PRES   REMARKS
GRAND FORKS    MOSUNNY   76  48  37 NW16G23   29.81S
6HR MIN TEMP:  73; 6HR MAX TEMP:  78;

GRAND FRKS AFB MOSUNNY   75  48  38 NW13      29.82F
DEVILS LAKE    SUNNY     75  46  35 NW16      29.87S
6HR MIN TEMP:  72; 6HR MAX TEMP:  77;

FARGO          SUNNY     76  47  35 NW15      29.84R
WAHPETON ARPT  CLEAR     73  43  33 N17G25    29.84S
$$

 ***** WEATHER ACROSS CENTRAL AND WESTERN NORTH DAKOTA  *****

CITY           SKY/WX    TMP DP  RH WIND       PRES   REMARKS
BISMARCK       SUNNY     78  52  40 N12       29.93S
6HR MIN TEMP:  77; 6HR MAX TEMP:  81;

MINOT          SUNNY     77  46  33 NW15      29.92S
6HR MIN TEMP:  73; 6HR MAX TEMP:  80;

JAMESTOWN      SUNNY     75  49  39 NW10      29.88F
6HR MIN TEMP:  73; 6HR MAX TEMP:  77;

MINOT AFB      MOSUNNY   82  47  29 NW17G25   29.91S
GARRISON         N/A     76  52  43 NW12      29.94F
WILLISTON      SUNNY     81  45  28 N15G21    29.97F
6HR MIN TEMP:  76; 6HR MAX TEMP:  82;

DICKINSON      SUNNY     79  46  31 N9        29.97S
6HR MIN TEMP:  76; 6HR MAX TEMP:  82;

HETTINGER      SUNNY     82  47  29 N9        29.99S
6HR MIN TEMP:  79; 6HR MAX TEMP:  85;

$$

 *****  OTHER AIRPORT OBSERVATIONS IN OUR AREA  *****

CITY           SKY/WX    TMP DP  RH WIND       PRES   REMARKS
WALHALLA       FAIR      73  46  38 MISG      29.82S
GRAFTON AIRPOR FAIR      75  48  38 NW15G25   29.82R
VALLEY CITY AR FAIR      75  50  41 NW14      29.88S
CANDO          FAIR      73  46  38 NW17G23   29.89S
CAVALIER APRT  FAIR      73  46  38 NW13G20   29.81S
GWINNER        FAIR      75  52  43 N9        29.88S
SHEYENNE NWR     N/A     77  49  37 N8        29.95S
ROLLA          FAIR      68  48  49 NW14G21   29.91S
 ***** THE ABOVE OBSERVATIONS ARE NON NWS ARE NOT QUALITY
       CONTROLLED AND MAY MIS-REPORT RAIN FOR SNOW...
$$

  *****  WEATHER ACROSS NORTHERN MINNESOTA  *****

CITY           SKY/WX    TMP DP  RH WIND       PRES   REMARKS
FLAG ISLAND    CLOUDY    68  48  49 NW17      29.75R
WARROAD        MOSUNNY   70  45  40 W16G25    29.78R
ROSEAU         SUNNY     70  46  43 NW15G24   29.79S
HALLOCK        SUNNY     73  45  35 NW12      29.79F
THF RVR FALLS  SUNNY     72  46  40 NW13      29.81S
BAUDETTE       CLOUDY    68  47  46 NW14      29.75R
6HR MIN TEMP:  67; 6HR MAX TEMP:  74;

WASKISH        SUNNY     70  46  43 W18G28    29.77S
CROOKSTON      SUNNY     75  46  35 NW15      29.82S
STEPHEN NDAWN    N/A     75  48  38 NW12        N/A
GREENBUSH NDAW   N/A     73  45  35 NW12        N/A
$$
  *****  WEATHER ACROSS CENTRAL AND WEST MINNESOTA  *****

CITY           SKY/WX    TMP DP  RH WIND       PRES   REMARKS
FOSSTON        SUNNY     73  45  35 NW12      29.83S
BEMIDJI        MOSUNNY   71  45  39 NW21G26   29.80S
PARK RAPIDS    SUNNY     73  45  36 NW21G26   29.81S
6HR MIN TEMP:  73; 6HR MAX TEMP:  78;

ELBOW LAKE     FAIR      73  55  51 NW12G18   29.84R
WADENA         SUNNY     72  50  46 NW16      29.82R
DETROIT LAKES  SUNNY     72  46  40 N9        29.85S
MOORHEAD       SUNNY     73  48  40 NW14      29.84S
FERGUS FALLS   SUNNY     73  52  46 N12G17    29.83R
MORRIS MN      SUNNY     75  55  50 NW8       29.83R
STAPLES        SUNNY     72  46  40 NW14G22   29.81R
$$
  *****  WEATHER ELSEWHERE ACROSS MINNESOTA  *****

CITY           SKY/WX    TMP DP  RH WIND       PRES   REMARKS
DULUTH         MOSUNNY   72  45  37 NW13G28   29.72R
6HR MIN TEMP:  71; 6HR MAX TEMP:  78; 6HR PCP: TRACE;

INTRNTL FALLS  MOSUNNY   69  45  41 NW13G21   29.72S
6HR MIN TEMP:  68; 6HR MAX TEMP:  73;

ELY            MOSUNNY   66  41  39 NW14G22   29.70R
CLOQUET        SUNNY     72  41  33 NW13G23   29.74R
WHEATON        SUNNY     73  54  49 NW9       29.86S
BRAINERD       SUNNY     74  43  32 NW15G23   29.79R
6HR MIN TEMP:  74; 6HR MAX TEMP:  80;

HIBBING        PTSUNNY   72  44  36 NW17G29   29.73S
6HR MIN TEMP:  64; 6HR MAX TEMP:  76; 6HR PCP:  0.04;

ALEXANDRIA     SUNNY     74  51  44 NW15      29.84S
6HR MIN TEMP:  74; 6HR MAX TEMP:  78;

SAINT CLOUD    MOSUNNY   76  53  44 NW15G24   29.77R
6HR MIN TEMP:  76; 6HR MAX TEMP:  83;

MINNEAPOLIS    MOSUNNY   80  55  42 NW20G28   29.73R
6HR MIN TEMP:  80; 6HR MAX TEMP:  84;

$$

  *****  WEATHER ACROSS SOUTH DAKOTA  *****

CITY           SKY/WX    TMP DP  RH WIND       PRES   REMARKS
SIOUX FALLS    SUNNY     81  60  48 N12       29.85S
6HR MIN TEMP:  81; 6HR MAX TEMP:  86;

BROOKINGS      SUNNY     75  57  53 N13       29.88S
WATERTOWN      MOSUNNY   76  57  51 N14       29.88S
6HR MIN TEMP:  76; 6HR MAX TEMP:  80;

HURON          SUNNY     80  59  48 N13       29.86F
6HR MIN TEMP:  80; 6HR MAX TEMP:  84;

SISSETON         N/A     76  55  48 N14       29.85R
ABERDEEN       SUNNY     80  55  42 N10       29.88S
6HR MIN TEMP:  80; 6HR MAX TEMP:  83;

MITCHELL       SUNNY     82  61  48 N8        29.87S
PIERRE         SUNNY     85  49  28 N14       29.89S
6HR MIN TEMP:  85; 6HR MAX TEMP:  89;

MOBRIDGE       SUNNY     83  55  38 N10       29.90S
RAPID CITY     SUNNY     84  54  35 NE8       29.97F
6HR MIN TEMP:  79; 6HR MAX TEMP:  86;

$$

  *****  SOME WEATHER IN NEARBY STATES *****

CITY           SKY/WX    TMP DP  RH WIND       PRES   REMARKS
GLASGOW MT     SUNNY     83  46  27 N8        29.98S
6HR MIN TEMP:  78; 6HR MAX TEMP:  85;

GREAT FALLS MT SUNNY     87  39  18 E9        29.97F
6HR MIN TEMP:  73; 6HR MAX TEMP:  88;

CHEYENNE WY    PTSUNNY   84  43  23 SE8       30.11F
6HR MIN TEMP:  78; 6HR MAX TEMP:  88; 6HR PCP: TRACE;

SCOTTSBLUFF NE SUNNY     89  51  27 S12       29.96F
6HR MIN TEMP:  83; 6HR MAX TEMP:  94;

OMAHA NE       MOSUNNY   91  76  61 N8        29.77F HX 103
6HR MIN TEMP:  90; 6HR MAX TEMP:  97;

DES MOINES IA  PTSUNNY   77  66  68 S14       29.79R
6HR MIN TEMP:  77; 6HR MAX TEMP:  93; 6HR PCP:  0.05;

DAVENPORT IA   SUNNY     86  74  67 SW12      29.71F HX  94
6HR MIN TEMP:  85; 6HR MAX TEMP:  89;

CHICAGO IL     PTSUNNY   87  70  56 SW20G36   29.66R HX  92
6HR MIN TEMP:  75; 6HR MAX TEMP:  91; 6HR PCP:  0.12;

EAU CLAIRE WI  SUNNY     79  60  52 NW9       29.68S
6HR MIN TEMP:  78; 6HR MAX TEMP:  85;

LA CROSSE WI   SUNNY     84  63  49 NW16      29.67R
6HR MIN TEMP:  82; 6HR MAX TEMP:  94;

$$

  *****  SOME NATIONAL WEATHER *****

CITY           SKY/WX    TMP DP  RH WIND       PRES   REMARKS
LA GUARDIA NY  PTCLDY    81  61  50 S14G20    29.87R
6HR MIN TEMP:  81; 6HR MAX TEMP:  89;

RALEIGH NC     PTCLDY    84  56  38 N5        29.93S
6HR MIN TEMP:  84; 6HR MAX TEMP:  90;

ATLANTA GA     PTCLDY    90  63  40 NW6       29.89S HX  91
6HR MIN TEMP:  88; 6HR MAX TEMP:  94;

NEW ORLEANS LA MOSUNNY   91  64  40 S10       29.85S HX  92
6HR MIN TEMP:  91; 6HR MAX TEMP:  96;

OKLAHOMA CITY  MOSUNNY   87  66  49 S10       29.88F
6HR MIN TEMP:  76; 6HR MAX TEMP:  90; 6HR PCP:  0.05;

ALBUQUERQUE NM CLOUDY    78  55  44 SW17G24   30.12R
6HR MIN TEMP:  78; 6HR MAX TEMP:  83;

SALT LAKE CITY CLOUDY    83  47  28 S21G29    29.96R
6HR MIN TEMP:  82; 6HR MAX TEMP:  92; 6HR PCP: TRACE;

LOS ANGELES CA MOSUNNY   74  65  73 W13       29.85F
6HR MIN TEMP:  74; 6HR MAX TEMP:  77;

BOISE ID       PTSUNNY   99  40  13 NW7       29.79F HX  94



USA.gov is the U.S. government's official web portal to all federal, state and local government web resources and services.